Back to catalog

STARLINK-5688

AliveCommunicationsVLEO
NORAD 55479·PAYLOAD·🇺🇸 United States

Launched Feb 2, 2023 from Cape Canaveral Space Force Station

Loading…

Next Passes (next 24 hours)

TLE

FreshSource: CelesTrak SupGP

Epoch: Sep 14, 2026, 22:21 UTC

1 55479C 23015AG  26257.93173611 -.00046839  00000+0 -16966-2 0  2572
2 55479  43.0033 332.8669 0001555 282.2995 130.1506 15.27600391    16

Track STARLINK-5688 in real time with AllMySat

Download on the App Store